{"data":{"norad_id":56097,"epoch":"2026-09-20T22:06:39.528576Z","epoch_age_seconds":69658,"freshness":"FRESH","line1":"1 56097U 23046E   26263.92129084  .00000192  00000+0  16525-4 0  9990","line2":"2 56097  43.0067  91.7152 0002257 265.0897  94.9697 15.27579072192435","mean_motion":15.27579072,"eccentricity":0.0002257,"inclination_deg":43.0067,"raan_deg":91.7152,"arg_perigee_deg":265.0897,"mean_anomaly_deg":94.9697,"bstar":1.6525e-5,"rev_number":19243,"period_min":94.266805980437,"perigee_km":481.50330447786,"apogee_km":484.60044513595,"semimajor_km":6861.1888748069,"source":"CELESTRAK","updated_at":"2026-09-21T09:00:33.362307Z"}}